This demonstration page uses our WeatherBlox Daily Observations layout. Learn more.

Left ArrowRight Arrow

36.17497, -115.13722

Hourly Observations for September 19, 2016

Temp ( °F °C ) Dew Point ( °F °C ) Humidity (%) Winds ( mph kmh ) Pressure ( in mb ) Visibility ( mi km ) Precip ( " mm )
12:53 am 00:53 Clear 76 24.4 26 -3.3 16 16 WNW 5 7 29.96 1015 10 16.0934 0 0
1:53 am 01:53 Clear 74 23.3 26 -3.3 17 17 Calm 29.98 1015 10 16.0934 0 0
2:53 am 02:53 Clear 71 21.7 29 -1.7 21 21 NW 5 7 29.97 1015 10 16.0934 0 0
3:53 am 03:53 Clear 72 22.2 27 -2.8 19 19 W 5 7 29.97 1015 10 16.0934 0 0
4:53 am 04:53 Clear 71 21.7 25 -3.9 18 18 NW 6 9 29.98 1015 10 16.0934 0 0
5:53 am 05:53 Clear 70 21.1 24 -4.4 18 18 N 5 7 29.99 1016 10 16.0934 0 0
6:53 am 06:53 Sunny 71 21.7 24 -4.4 17 17 NNW 6 9 30.01 1016 10 16.0934 0 0
7:53 am 07:53 Sunny 75 23.9 27 -2.8 17 17 Calm 30.03 1017 10 16.0934 0 0
8:53 am 08:53 Sunny 81 27.2 25 -3.9 13 13 ESE 3 6 30.04 1017 10 16.0934 0 0
9:53 am 09:53 Sunny 84 28.9 22 -5.6 10 10 VRB 3 6 30.04 1017 10 16.0934 0 0
10:53 am 10:53 Sunny 87 30.6 22 -5.6 9 9 SE 5 7 30.02 1017 10 16.0934 0 0
11:53 am 11:53 Sunny 92 33.3 21 -6.1 7 7 VRB 6 9 29.99 1016 10 16.0934 0 0
12:53 pm 12:53 Sunny 92 33.3 23 -5 8 8 VRB 3 6 29.97 1015 10 16.0934 0 0
1:53 pm 13:53 Sunny 95 35 24 -4.4 8 8 SE 6 9 29.95 1014 10 16.0934 0 0
2:53 pm 14:53 Sunny 96 35.6 25 -3.9 8 8 SE 6 9 29.93 1014 10 16.0934 0 0
3:53 pm 15:53 Sunny 97 36.1 25 -3.9 7 7 SSE 5 7 29.91 1013 10 16.0934 0 0
4:53 pm 16:53 Sunny 98 36.7 25 -3.9 7 7 ESE 6 9 29.9 1013 10 16.0934 0 0
5:53 pm 17:53 Sunny 97 36.1 27 -2.8 8 8 ESE 8 13 29.9 1013 10 16.0934 0 0
6:53 pm 18:53 Clear 94 34.4 33 0.6 12 12 SE 9 15 29.9 1013 10 16.0934 0 0
7:53 pm 19:53 Clear 92 33.3 34 1.1 13 13 Calm 29.91 1013 10 16.0934 0 0
8:53 pm 20:53 Clear 91 32.8 35 1.7 14 14 Calm 29.93 1014 10 16.0934 0 0
9:53 pm 21:53 Clear 90 32.2 35 1.7 14 14 SSW 12 19 29.94 1014 10 16.0934 0 0
10:53 pm 22:53 Clear 89 31.7 38 3.3 16 16 SW 12 19 29.94 1014 10 16.0934 0 0
11:53 pm 23:53 Clear 87 30.6 38 3.3 18 18 SSW 8 13 29.95 1014 10 16.0934 0 0

Powered by AerisWeather